Location: Melbourne
(37.8666°S, 145.1333°E)
Time: 06:56:45
(UTC+11:00)

Daily predictions for brighter satellites

Satellite Brightness Start Highest point End
(mag) Time Altitude Azimuth Time Altitude Azimuth Time Altitude Azimuth
Cosmos 2278 Rocket 2.7 20:22:22 10° S 20:27:50 43° ESE 20:33:13 10° NE
IRAS Rocket 4.4 20:24:59 10° SSE 20:30:38 89° WSW 20:36:16 10° NNW
Okean 1 Rocket 3.1 20:27:41 10° S 20:32:13 65° E 20:36:39 10° NNE
Cosmos 921 Rocket 4.4 20:29:43 10° NE 20:32:43 19° E 20:35:42 10° SE
Cosmos 2237 Rocket 2.2 20:27:18 10° N 20:32:54 65° ENE 20:38:35 10° SSE
ATLAS 2AS CENTAUR R/B 4.1 20:29:33 10° S 20:33:55 19° SE 20:38:26 10° E
Cosmos 1818 4.3 20:34:43 10° SW 20:40:01 56° WNW 20:45:15 10° NNE
SL-16 R/B 3.0 20:35:47 10° NNE 20:40:33 29° ENE 20:45:22 10° SE
MOS 1 4.3 20:37:08 10° SSE 20:42:52 84° ENE 20:48:32 10° NNW
PEGASUS R/B 4.4 20:42:56 10° NE 20:45:23 39° ESE 20:48:58 10° S
FREGAT/IRIS 2.9 20:42:59 10° SSE 20:45:55 42° E 20:48:45 10° N
ERS-2 2.8 20:43:02 10° SSE 20:46:28 33° E 20:49:51 10° NNE
Cosmos 1513 Rocket 4.5 20:40:59 10° N 20:47:06 89° E 20:53:15 10° S
Cosmos 1844 Rocket 4.0 20:42:04 10° SW 20:47:21 42° WNW 20:52:35 10° N
Abrixas rocket 4.3 20:46:52 10° NNE 20:47:37 11° NE 20:47:37 11° NE
Okean 1 3.3 20:45:43 10° N 20:49:43 84° E 20:53:48 10° S
Cosmos 1190 Rocket 4.2 20:47:47 10° SSW 20:53:04 79° WNW 20:58:15 10° NNE
Cosmos 1271 Rocket 3.6 20:49:28 10° SSW 20:53:24 54° W 20:57:19 10° N
Cosmos 1743 3.4 20:50:09 10° S 20:53:53 37° E 20:57:33 10° NNE
HJ-1C 3.9 20:53:01 10° SSE 20:56:21 41° E 20:59:38 10° N
Cosmos 407 Rocket 3.7 20:52:28 10° SSW 20:57:42 75° WNW 21:02:55 10° N
NOSS 3-1 (A) 4.3 20:52:11 10° SW 20:58:03 47° WNW 21:03:22 10° N
USA 186 3.8 20:56:59 10° ESE 20:57:09 11° ESE 20:57:09 11° ESE
Centaur D AC-25 4.5 20:55:10 10° WNW 20:59:35 34° N 21:09:57 14° ENE
Cosmos 1140 Rocket 3.6 20:57:36 10° S 21:02:44 59° ESE 21:07:32 11° NNE
Resurs 01 Rocket 3.0 21:00:03 10° SE 21:03:06 18° E 21:03:42 17° ENE
ERBS 2.3 21:01:15 10° SW 21:04:45 87° NW 21:07:09 19° NE
H-2A R/B 3.2 21:01:06 10° S 21:05:01 66° WSW 21:08:55 10° NNW
Cosmos 1023 Rocket 4.5 21:00:25 10° SSW 21:05:32 63° ESE 21:10:15 12° NNE
SPOT 3 Rocket 3.9 21:03:05 10° S 21:08:18 69° WSW 21:13:28 10° NNW
Cosmos 1184 Rocket 3.6 21:09:45 21° NE 21:11:19 32° E 21:14:23 10° SSE
Helios 1B rocket 3.2 21:09:41 21° ENE 21:11:46 33° ESE 21:15:31 10° S
Cosmos 1939 Rocket 4.1 21:09:45 10° SE 21:13:00 22° E 21:13:10 22° E
NOSS 2-3 (C) 4.2 21:06:47 10° SSW 21:13:14 75° SE 21:17:05 19° NE
Cosmos 1975 Rocket 3.5 21:14:14 10° NNW 21:18:43 67° W 21:23:15 10° S
Delta 2 Rocket 4.1 21:14:05 10° W 21:19:33 68° N 21:23:02 24° ENE
Cosmos 1975 3.3 21:15:38 10° SSW 21:19:46 66° W 21:23:52 10° N
USA 234 3.4 21:15:30 10° SE 21:22:08 81° SW 21:28:43 10° NW
Meteor 1-13 Rocket 4.2 21:16:39 10° N 21:22:15 68° E 21:28:04 10° SSE
Cosmos 2333 Rocket 4.3 21:17:59 10° WNW 21:22:53 29° WSW 21:27:52 10° S
SJ-6B 2.6 21:22:44 10° SSE 21:26:36 84° ENE 21:30:21 10° N
PSLV R/B 3.9 21:24:39 10° WSW 21:27:44 45° S 21:28:57 28° SE
Envisat 3.0 21:24:51 10° SSE 21:29:58 62° E 21:35:01 10° N
Cosmos 1452 Rocket 4.2 21:25:07 10° NNW 21:30:18 57° WSW 21:35:33 10° S
CZ-2D R/B 3.2 21:28:29 10° SSE 21:32:27 87° ENE 21:36:22 10° NNW
Cosmos 1954 Rocket 4.3 21:28:54 10° SSW 21:34:05 67° WNW 21:38:38 13° N
Yuri Rocket 4.4 21:32:18 10° NW 21:36:08 27° N 21:37:00 26° NNE
Cosmos 1666 3.2 21:33:14 10° SSW 21:37:02 59° W 21:40:05 15° N
Nadezhda 4 Rocket 4.4 21:33:10 10° SSW 21:39:21 63° W 21:45:32 10° N
YAOGAN 6 3.0 21:37:18 10° SSE 21:40:41 45° E 21:40:41 45° E
Cosmos 1741 Rocket 4.0 21:39:05 10° SSW 21:44:24 64° ESE 21:46:20 38° NE
Meteor 2-4 Rocket 3.5 21:39:34 10° N 21:44:59 88° E 21:50:26 10° S
ASTEX 1 3.3 21:42:46 22° N 21:46:02 85° E 21:51:00 10° S
Cosmos 1536 Rocket 3.4 21:46:55 28° N 21:49:09 77° E 21:53:34 10° S
Cosmos 2279 Rocket 4.1 21:46:25 26° NNE 21:49:52 54° E 21:56:00 10° SSE
Cosmos 1092 Rocket 4.2 21:43:44 10° S 21:50:06 77° W 21:56:05 12° N
Cosmos 1455 Rocket 3.2 21:47:22 10° S 21:51:48 74° W 21:53:51 30° N
Atlas Centaur 2 3.4 21:45:01 10° WNW 21:53:08 50° N 21:56:23 35° ENE
Lacrosse 5 1.7 21:51:25 10° NW 21:56:30 77° NE 22:01:38 10° SE
Meteor 1-29 3.2 22:01:32 65° SSW 22:01:32 65° SSW 22:04:32 10° SSW
Cosmos 1943 Rocket 4.1 22:00:37 10° SSE 22:03:51 15° SE 22:04:04 15° SE
Cosmos 1428 Rocket 4.4 21:59:33 10° S 22:05:44 65° E 22:07:19 48° NE
Cosmos 1544 Rocket 4.5 22:02:04 10° SSW 22:06:17 46° W 22:08:28 25° NNW
CZ-2C R/B 4.1 22:07:53 21° SE 22:07:53 21° SE 22:11:02 10° SSE
Cosmos 1850 Rocket 4.2 22:05:30 10° SSW 22:10:46 70° WNW 22:12:24 44° N
Cosmos 2278 Rocket 4.2 22:07:04 10° SW 22:11:36 24° WNW 22:16:03 10° NNW
Resurs 1-3 3.9 22:12:33 10° S 22:17:00 67° WSW 22:18:16 44° NW
Nimbus 7 Rocket 4.3 22:16:15 53° NNE 22:17:49 85° ESE 22:23:51 10° SSW
Cosmos 2297 4.2 22:12:44 10° SSW 22:18:25 58° WNW 22:20:24 38° NNW
Spot 2 Rocket 3.3 22:14:22 10° SSE 22:19:29 86° ENE 22:20:08 69° N
Cosmos 2026 Rocket 4.2 22:16:05 10° SSW 22:22:27 69° W 22:25:21 33° NNW
SL-16 R/B 3.7 22:19:15 10° NW 22:24:29 37° WSW 22:29:46 10° S
H-2A R/B 4.4 22:20:40 10° SE 22:20:46 10° SE 22:20:46 10° SE
ATLAS 2AS CENTAUR R/B 2.5 22:19:08 10° SSW 22:25:29 89° WNW 22:26:48 61° NNE
Cosmos 44 Rocket 3.5 22:20:35 10° NW 22:25:44 75° WSW 22:30:51 10° SSE
Meteor 1-15 Rocket 4.2 22:19:53 10° S 22:25:54 88° W 22:26:54 64° N
Cosmos 2369 Rocket 3.2 22:26:03 10° S 22:30:25 33° SE 22:30:25 33° SE
Cosmos 1110 Rocket 4.2 22:30:15 37° NW 22:32:19 70° WSW 22:37:41 10° SSE
Cosmos 44 4.5 22:32:14 10° NW 22:37:22 46° SW 22:42:22 10° SSE
Resurs 01 Rocket 3.0 22:35:33 10° S 22:39:41 37° WSW 22:41:15 28° WNW
H-2A R/B 4.2 22:26:47 10° WNW 22:39:13 27° NNW 22:39:13 27° NNW
Cosmos 2266 Rocket 4.3 22:37:08 10° S 22:42:28 54° SE 22:42:28 54° SE
Cosmos 1603 3.7 22:43:21 78° W 22:43:27 78° WSW 22:49:10 10° SSE
GP-B 4.3 22:39:53 10° S 22:42:41 38° S 22:42:41 38° S
NOAA 11 4.4 22:46:31 10° S 22:51:43 70° SW 22:51:43 70° SW
NOSS 3-4 (A) 4.2 22:47:20 10° SSW 22:54:03 46° SE 22:54:03 46° SE
NOSS 3-4 (C) 4.2 22:47:26 10° SSW 22:54:08 45° SE 22:54:08 45° SE
Lacrosse 5 4.1 23:36:02 10° W 23:39:58 22° SSW 23:43:58 10° SSE
Atlas Centaur 2 4.2 23:34:29 10° W 23:39:00 31° WNW 23:39:00 31° WNW
CZ-2C R/B 4.4 23:49:25 27° SW 23:49:25 27° SW 23:52:03 10° SSW
Cosmos 1943 Rocket 3.7 23:42:33 10° SSW 23:45:35 33° SSW 23:45:35 33° SSW
